Location: Alladorf
(49.9620°N, 11.3790°E)
Time: 21:06:42
(UTC+00:00)

ATLAS CENTAUR R/B - Pass Details

Date: 29 November 2020
Orbit: 477 x 668 km, 64.7° (Epoch: 12 January)

Event Time Altitude Azimuth Distance (km) Brightness Sun altitude
Exits shadow 06:08:44 - 280° (W) 1,933 3.5 -6.4°
Reaches altitude 10° 06:10:05 10° 263° (W) 1,726 3.4 -6.2°
Maximum altitude 06:11:02 11° 248° (WSW) 1,686 3.4 -6.1°
Drops below altitude 10° 06:12:00 10° 234° (SW) 1,745 3.6 -5.9°
Sets 06:15:51 0° 196° (SSW) 2,679 5.0 -5.4°
